Weather in Shubra El-Kheima

Egypt     30°12′10″N   31°23′47″E
temp.,
°C
wind,
m/s
gust,
m/s
humid.,
%
clouds,
%
prec.,
mm/h
press.,
hPa
HPBL,
m
28 june, tue
tue2823:00+24nw47610 0.0 1010303
02:00+22wnw24740 0.0 1009165
05:00+21wnw22820 0.0 100939
08:00+24wnw23620 0.0 1009579
11:00+30w22320 0.0 10081478
14:00+35wsw23210 0.0 10062555
17:00+34wsw13230 0.0 10062641
20:00+29n57440 0.0 1008545
29 june, wed
wed2923:00+26n33520 0.0 1009172
02:00+24nw33620 0.0 1008141
05:00+22nw23790 0.0 1009101
08:00+25w22630 0.0 1009601
11:00+31w33310 0.0 10081533
14:00+35sw44200 0.0 10062614
17:00+36w56182 0.0 10043230
20:00+28n68460 0.0 1007790
30 june, thu
thu3023:00+26n34560 0.0 1008284
02:00+24nw23740 0.0 1007187
05:00+23wnw23820 0.0 1008108
08:00+26w33630 0.0 1008728
11:00+31wsw44370 0.0 10071596
14:00+35wsw54240 0.0 10052494
17:00+36w46202 0.0 10052930
20:00+28n78490 0.0 1007578
1 july, fri
fri123:00+25n45650 0.0 1009342
02:00+23nw34760 0.0 1008213
05:00+22nw23840 0.0 100882
08:00+25nw12620 0.0 1008589
11:00+31wnw22310 0.0 10081452
14:00+35w23200 0.0 10062528
17:00+37nnw45180 0.0 10043274
20:00+29n68400 0.0 1007703
2 july, sat
sat223:00+26n34540 0.0 1008210
02:00+24nnw23690 0.0 100788
05:00+22nw12810 0.0 100832
08:00+26wnw22610 0.0 1008511
11:00+33wnw22310 0.0 10071469
14:00+37wsw23200 0.0 10042745
17:00+38wnw45170 0.0 10043416
20:00+30nne58400 0.0 1006549